PBO Station Position Time Series. Reference Frame : NAM14
Format Version,1.1.1
4-character ID,JWLF
Station name,Jewell_Fjord
Begin Date, 2008-07-17
End Date, 2023-06-26
Release Date, 2023-06-27
Reference position, 83.1116527879 North Latitude, -45.1198323672 East Longitude, 112.85853 meters elevation,
Date, North (mm), East (mm), Vertical (mm), North Std. Deviation (mm), East Std. Deviation (mm),              Vertical Std. Deviation (mm), Quality,
2008-07-17,0.00, 0.00, 0.00, 1.76, 1.53, 11.94, repro,
2008-07-18,0.91, -1.01, 1.48, 1.82, 1.65, 12.40, repro,
2008-07-19,-0.28, -1.90, 1.52, 1.83, 1.65, 12.35, repro,
2008-07-20,1.19, -1.62, -1.81, 1.80, 1.56, 12.15, repro,
2008-07-21,0.13, -0.30, -8.50, 1.77, 1.52, 11.95, repro,
2008-07-22,0.22, 0.78, -4.89, 1.76, 1.52, 11.91, repro,
2008-07-23,0.30, 1.86, -1.44, 1.79, 1.57, 12.14, repro,
2008-07-24,0.36, -1.21, 3.17, 1.74, 1.54, 11.88, repro,
2008-07-25,-0.17, -1.12, -6.47, 1.77, 1.53, 12.05, repro,
2008-07-26,-0.38, -1.04, -7.45, 1.81, 1.56, 12.22, repro,
2008-07-27,1.03, -1.29, -0.98, 1.86, 1.61, 12.25, repro,
2008-07-28,-0.02, -0.53, -3.50, 1.80, 1.57, 12.32, repro,
2008-07-29,0.87, -1.78, -11.91, 1.81, 1.57, 12.25, repro,
2008-07-30,1.35, -1.55, -9.08, 1.90, 1.69, 12.32, repro,
2008-07-31,-1.07, -0.65, -3.64, 1.79, 1.55, 12.10, repro,
2008-08-01,-0.50, -1.65, -11.78, 1.77, 1.52, 11.92, repro,
2008-08-02,-2.53, -3.34, -16.12, 1.76, 1.53, 11.92, repro,
2008-08-03,-1.71, -1.92, -0.61, 1.80, 1.61, 12.29, repro,
2008-08-04,1.41, -2.41, -4.60, 1.82, 1.63, 11.97, repro,
2008-08-05,-0.28, -2.02, -14.64, 1.79, 1.55, 12.02, repro,
2008-08-06,-0.52, -1.28, -0.25, 1.78, 1.56, 12.07, repro,
2008-08-07,-3.03, -1.87, -9.21, 1.90, 1.65, 12.72, repro,
2008-08-08,-0.81, -1.08, -15.08, 1.85, 1.67, 12.93, repro,
2008-08-09,-0.64, -0.56, -6.10, 1.78, 1.58, 12.20, repro,
2008-08-10,-0.59, -2.07, -5.67, 1.78, 1.58, 12.23, repro,
2008-08-11,1.31, -4.07, -17.92, 1.78, 1.57, 12.11, repro,
2008-08-12,0.47, -2.36, -1.80, 1.89, 1.64, 12.25, repro,
2008-08-13,-0.17, -0.80, -0.95, 1.84, 1.64, 12.14, repro,
2008-08-14,-0.18, -1.78, -0.98, 1.83, 1.62, 12.31, repro,
2008-08-15,1.60, -0.79, 3.06, 1.84, 1.67, 12.13, repro,
2008-08-16,0.17, -1.71, 0.13, 1.77, 1.55, 12.00, repro,
2008-08-17,1.27, -0.19, 5.98, 2.37, 2.14, 15.49, repro,
2008-08-18,-0.43, -0.21, 6.61, 1.83, 1.62, 12.30, repro,
2008-08-19,0.47, -0.29, 2.43, 1.79, 1.56, 12.15, repro,
2008-08-20,0.06, 0.43, 3.64, 1.78, 1.57, 12.14, repro,
2008-08-21,0.91, -3.11, 0.76, 1.76, 1.56, 11.99, repro,
2008-08-22,0.94, -1.79, 7.77, 1.82, 1.60, 12.36, repro,
2008-08-23,-1.17, -1.86, 0.07, 1.79, 1.56, 12.15, repro,
2008-08-24,-1.47, -0.45, -1.95, 1.82, 1.57, 12.41, repro,
2008-08-25,0.67, -2.01, 3.43, 1.79, 1.57, 12.20, repro,
2008-08-26,-1.02, -1.77, -4.27, 1.77, 1.56, 12.08, repro,
2008-08-27,-0.94, -2.34, 0.06, 1.79, 1.59, 12.23, repro,
2008-08-28,-1.89, -2.13, -1.93, 1.89, 1.68, 12.96, repro,
2008-08-29,-1.92, -1.74, -3.22, 1.81, 1.60, 12.27, repro,
2008-08-30,-1.48, -0.40, -8.72, 1.79, 1.60, 12.32, repro,
2008-08-31,1.07, -1.21, 3.33, 1.80, 1.61, 12.42, repro,
2008-09-01,-0.70, -2.65, -3.48, 1.80, 1.60, 12.27, repro,
2008-09-02,-0.05, -3.70, 5.35, 1.79, 1.59, 12.22, repro,
2008-09-03,-0.71, -1.46, -1.41, 1.83, 1.65, 12.76, repro,
2008-09-04,-0.00, -2.56, 1.90, 1.89, 1.67, 13.09, repro,
2008-09-05,-1.02, -3.03, -0.23, 1.81, 1.62, 12.51, repro,
2008-09-06,1.66, -3.07, 2.11, 1.79, 1.60, 12.29, repro,
2008-09-07,3.99, -2.37, 5.56, 1.92, 1.74, 12.50, repro,
2008-09-08,0.69, -2.38, -3.18, 1.83, 1.64, 12.60, repro,
2008-09-09,-0.09, -1.05, -6.00, 1.79, 1.60, 12.30, repro,
2008-09-10,1.63, -1.99, -7.47, 1.82, 1.61, 12.60, repro,
2008-09-11,-0.21, -1.74, -1.03, 1.80, 1.61, 12.38, repro,
2008-09-12,2.34, -3.13, 4.25, 1.81, 1.61, 12.42, repro,
2008-09-13,1.74, -3.09, -6.07, 1.81, 1.62, 12.52, repro,
2008-09-14,1.52, -1.37, -3.28, 1.80, 1.59, 12.36, repro,
2008-09-15,3.86, -1.66, -5.47, 1.84, 1.64, 12.71, repro,
2008-09-16,0.47, -2.77, -4.18, 1.81, 1.63, 12.35, repro,
2008-09-17,2.33, -2.60, -5.11, 3.62, 2.98, 25.20, repro,
2008-09-18,3.33, -1.86, 0.69, 2.49, 2.12, 17.29, repro,
2008-09-19,2.49, -3.03, -3.98, 1.77, 1.55, 12.05, repro,
2008-09-20,4.06, -2.44, -8.05, 1.79, 1.55, 12.10, repro,
2008-09-21,2.47, -3.34, -14.98, 1.77, 1.56, 12.12, repro,
2008-09-22,1.18, -5.11, -11.66, 1.77, 1.55, 12.05, repro,
2008-09-23,2.11, -2.33, -9.09, 1.79, 1.55, 12.17, repro,
2008-09-24,2.11, -1.55, -7.26, 1.78, 1.55, 12.11, repro,
2008-09-25,2.54, -0.54, -11.36, 1.80, 1.55, 12.16, repro,
2008-09-26,1.44, -1.54, -11.42, 1.80, 1.59, 12.35, repro,
2008-09-27,0.30, -1.48, -6.83, 1.78, 1.57, 12.14, repro,
2008-09-28,-0.49, -1.12, -5.19, 1.79, 1.55, 12.26, repro,
2008-09-29,1.69, -1.92, -9.23, 1.83, 1.56, 12.40, repro,
2008-09-30,1.33, -2.36, -5.34, 1.77, 1.55, 12.01, repro,
2008-10-01,0.92, -4.01, -6.26, 1.77, 1.56, 12.15, repro,
2008-10-02,0.86, -3.92, -17.25, 1.80, 1.58, 12.19, repro,
2008-10-03,-2.36, -2.99, -7.50, 1.79, 1.55, 12.20, repro,
2008-10-04,1.41, -2.35, 4.06, 1.78, 1.56, 12.13, repro,
2008-10-05,0.40, -2.38, -4.09, 1.78, 1.55, 11.98, repro,
2008-10-06,1.54, -1.07, -9.39, 1.76, 1.54, 12.00, repro,
2008-10-07,2.54, -1.18, -11.64, 1.78, 1.56, 12.21, repro,
2008-10-08,0.93, -1.99, -12.81, 1.84, 1.56, 12.44, repro,
2008-10-09,2.47, -3.07, -11.11, 1.77, 1.53, 12.03, repro,
2008-10-10,1.34, -1.91, -10.70, 1.76, 1.52, 11.94, repro,
2008-10-11,-0.40, -0.61, -5.97, 1.79, 1.55, 12.02, repro,
2008-10-12,0.37, -0.17, -3.13, 1.76, 1.56, 11.97, repro,
2008-10-13,1.28, -2.39, -10.31, 1.76, 1.54, 12.15, repro,
2008-10-14,4.04, -3.13, -3.70, 1.78, 1.55, 12.12, repro,
2008-10-15,2.70, -3.45, -6.50, 1.78, 1.59, 12.25, repro,
2008-10-16,3.58, -2.51, -0.43, 1.79, 1.56, 12.20, repro,
2008-10-17,4.05, -2.29, -10.72, 1.72, 1.51, 11.77, repro,
2008-10-18,3.13, -1.26, -12.65, 1.75, 1.53, 11.89, repro,
2008-10-19,1.86, -2.60, -6.50, 1.76, 1.52, 12.14, repro,
2008-10-20,0.49, -1.00, -3.64, 1.76, 1.51, 12.03, repro,
2008-10-21,1.77, -0.28, 0.30, 1.74, 1.51, 11.75, repro,
2008-10-22,-0.38, -1.27, -2.43, 1.76, 1.52, 12.01, repro,
2008-10-23,2.94, -1.93, -1.78, 1.74, 1.52, 11.86, repro,
2008-10-24,-0.88, -4.21, -2.97, 1.76, 1.53, 12.07, repro,
2008-10-25,-0.02, -4.02, -1.67, 1.77, 1.53, 12.07, repro,
2008-10-26,-1.08, -2.39, -8.97, 1.74, 1.52, 11.98, repro,
2008-10-27,0.59, -2.24, -7.22, 1.75, 1.54, 11.96, repro,
2008-10-28,0.58, -1.74, -1.04, 1.84, 1.58, 12.30, repro,
2008-10-29,1.16, -0.58, -6.58, 1.86, 1.60, 12.61, repro,
2008-10-30,2.39, -0.70, -9.91, 1.79, 1.55, 12.28, repro,
2008-10-31,2.68, -1.45, -6.34, 1.78, 1.53, 12.00, repro,
2008-11-01,-1.23, -0.95, -9.67, 1.75, 1.52, 11.80, repro,
2008-11-02,-1.83, -1.41, -6.52, 1.78, 1.53, 11.97, repro,
2008-11-03,0.22, -1.84, -11.76, 2.41, 2.03, 16.44, repro,
2008-11-04,0.04, -1.53, -9.65, 1.77, 1.53, 12.06, repro,
2008-11-05,0.29, -1.11, -8.12, 1.78, 1.52, 12.19, repro,
2008-11-06,0.67, -1.65, -3.08, 1.73, 1.51, 11.81, repro,
2008-11-07,0.44, -2.05, -9.75, 1.77, 1.55, 12.17, repro,
2008-11-08,-0.26, -2.23, -10.22, 1.79, 1.53, 12.09, repro,
2008-11-09,-1.37, -0.87, -7.79, 1.77, 1.53, 12.07, repro,
2008-11-10,0.52, -2.28, 0.70, 1.75, 1.52, 12.01, repro,
2008-11-11,0.86, -1.58, -2.97, 1.76, 1.53, 12.08, repro,
2008-11-12,1.38, -2.89, 4.38, 1.75, 1.54, 12.02, repro,
2008-11-13,0.41, -1.37, -6.59, 1.80, 1.57, 12.34, repro,
2008-11-14,0.78, -0.98, -5.97, 1.79, 1.61, 12.35, repro,
2008-11-15,2.68, -0.45, -10.33, 1.80, 1.59, 12.39, repro,
2008-11-16,-0.81, -3.43, -11.17, 1.78, 1.58, 12.16, repro,
2008-11-17,-1.02, -1.49, -11.54, 1.83, 1.60, 12.59, repro,
2008-11-18,1.80, -2.81, -7.87, 1.79, 1.55, 12.29, repro,
2008-11-19,2.04, -2.99, -14.49, 1.79, 1.55, 12.22, repro,
2008-11-20,-0.66, -3.44, -21.21, 2.64, 2.22, 17.97, repro,
2008-11-21,2.52, -1.26, -11.13, 1.87, 1.64, 12.79, repro,
2008-11-22,2.55, -3.25, 3.53, 1.79, 1.59, 12.33, repro,
2008-11-23,0.02, -2.46, -9.36, 1.84, 1.61, 12.50, repro,
2008-11-24,0.84, -1.63, -5.71, 2.28, 1.96, 16.05, repro,
2008-11-25,1.30, -2.00, 3.05, 1.84, 1.62, 12.64, repro,
2008-11-26,-0.77, -0.30, -8.69, 1.81, 1.58, 12.42, repro,
2008-11-27,-0.16, -0.96, -5.07, 1.80, 1.57, 12.38, repro,
2008-11-28,-2.57, -0.69, -7.46, 1.80, 1.59, 12.46, repro,
2008-11-29,-0.18, -0.55, -4.81, 1.81, 1.58, 12.31, repro,
2008-11-30,-1.29, -1.96, -13.09, 1.83, 1.60, 12.73, repro,
2008-12-01,1.15, -2.87, -13.64, 1.79, 1.56, 12.15, repro,
2008-12-02,3.72, -1.71, -7.47, 1.84, 1.61, 12.69, repro,
2008-12-03,3.72, -2.10, -7.99, 1.84, 1.61, 12.96, repro,
2008-12-04,3.82, -3.47, 1.55, 1.83, 1.65, 12.57, repro,
2008-12-05,1.99, -2.80, -6.20, 1.85, 1.61, 12.61, repro,
2008-12-06,1.29, -2.89, -5.44, 1.87, 1.68, 12.80, repro,
2008-12-07,0.92, -3.38, 0.06, 1.89, 1.65, 12.84, repro,
2008-12-08,0.50, -2.55, -18.41, 1.84, 1.60, 12.64, repro,
2008-12-09,1.34, -3.61, 1.25, 1.86, 1.62, 12.75, repro,
2008-12-10,4.33, -4.12, 3.79, 1.78, 1.52, 12.00, repro,
2008-12-11,2.91, -2.61, -4.68, 1.84, 1.60, 12.59, repro,
2008-12-12,2.28, -0.58, -5.84, 1.81, 1.61, 12.34, repro,
2008-12-13,2.49, -3.06, -8.91, 1.80, 1.57, 12.24, repro,
2008-12-14,1.62, -3.00, -4.92, 1.79, 1.54, 12.13, repro,
2008-12-15,4.09, -4.71, 3.44, 1.82, 1.57, 12.29, repro,
2008-12-16,3.65, -2.94, -6.36, 1.75, 1.51, 11.92, repro,
2008-12-17,2.49, -1.63, -7.99, 1.78, 1.55, 12.21, repro,
2008-12-18,3.42, -2.10, -11.25, 1.75, 1.53, 11.91, repro,
2008-12-19,2.38, -0.98, -6.47, 1.84, 1.58, 12.55, repro,
2008-12-20,3.63, -1.36, -6.10, 1.76, 1.53, 12.00, repro,
2008-12-21,4.07, -1.66, -3.45, 1.78, 1.54, 12.16, repro,
2008-12-22,4.73, -0.76, -14.36, 1.76, 1.53, 11.86, repro,
2008-12-23,6.49, -1.40, -13.13, 1.80, 1.58, 12.23, repro,
2008-12-24,6.06, -3.23, -7.41, 1.76, 1.53, 11.96, repro,
2008-12-25,2.73, -2.43, -16.09, 1.79, 1.55, 12.13, repro,
2008-12-26,2.68, -0.65, -9.18, 1.76, 1.53, 12.06, repro,
2008-12-27,3.61, -0.78, -5.94, 1.75, 1.53, 11.96, repro,
2008-12-28,2.72, -1.73, -13.28, 1.77, 1.53, 12.08, repro,
2008-12-29,0.57, 0.48, -29.17, 1.77, 1.57, 12.21, repro,
2008-12-30,0.65, 0.55, -13.21, 1.76, 1.54, 12.02, repro,
2008-12-31,0.66, 1.04, -13.88, 1.77, 1.54, 12.11, repro,
2009-01-01,1.70, -1.30, -11.81, 1.77, 1.54, 12.14, repro,
2009-01-02,1.06, -0.06, -15.03, 1.81, 1.60, 12.56, repro,
2009-01-03,0.73, 0.18, -15.48, 1.79, 1.55, 12.35, repro,
2009-01-04,0.92, 0.81, -0.57, 1.79, 1.58, 12.31, repro,
2009-01-05,0.86, -0.03, 6.92, 2.44, 2.01, 16.97, repro,
2009-01-06,1.52, -1.08, -14.31, 1.80, 1.58, 12.31, repro,
2009-01-07,2.13, -1.30, -11.10, 1.79, 1.58, 12.31, repro,
2009-01-08,2.99, -0.50, -17.03, 1.84, 1.58, 12.63, repro,
2009-01-09,3.89, -1.14, -8.77, 1.84, 1.58, 12.47, repro,
2009-01-10,2.23, -0.83, -17.24, 1.76, 1.53, 12.12, repro,
2009-01-11,3.20, 0.64, -2.64, 1.82, 1.58, 12.32, repro,
2009-01-12,3.41, -1.36, -8.30, 1.90, 1.66, 13.02, repro,
2009-01-13,2.59, -0.13, -4.95, 1.88, 1.65, 12.89, repro,
2009-01-14,3.02, -0.13, -14.05, 1.86, 1.63, 12.68, repro,
2009-01-15,1.53, 1.31, -15.71, 1.79, 1.56, 12.19, repro,
2009-01-16,3.22, 0.95, -6.55, 1.79, 1.55, 12.20, repro,
2009-01-17,1.82, -0.39, -10.61, 1.82, 1.57, 12.45, repro,
2009-01-18,4.37, -0.95, -3.41, 1.87, 1.65, 12.86, repro,
2009-01-19,5.37, -0.75, -19.19, 1.91, 1.67, 13.01, repro,
2009-01-20,6.23, 0.14, -12.11, 1.83, 1.59, 12.49, repro,
2009-01-21,6.08, -1.23, -11.87, 1.86, 1.67, 12.97, repro,
2009-01-22,4.30, -1.26, -19.12, 1.83, 1.61, 12.49, repro,
2009-01-23,2.84, -0.73, -22.12, 1.83, 1.57, 12.32, repro,
2009-01-24,4.50, -2.86, -7.51, 1.87, 1.62, 12.65, repro,
2009-01-25,4.43, -1.59, -7.30, 1.85, 1.63, 12.60, repro,
2009-01-26,4.85, -0.56, -4.56, 1.78, 1.58, 12.16, repro,
2009-01-27,6.05, -0.44, -5.97, 1.81, 1.57, 12.48, repro,
2009-01-28,4.15, -0.60, -2.60, 1.77, 1.54, 12.18, repro,
2009-01-29,5.70, -0.44, -4.66, 1.78, 1.53, 12.13, repro,
2009-01-30,6.33, -1.44, -5.50, 1.78, 1.52, 12.10, repro,
2009-01-31,7.05, -3.11, -8.99, 1.76, 1.53, 11.97, repro,
2009-02-01,6.28, -0.51, -8.46, 1.76, 1.54, 12.05, repro,
2009-02-02,5.12, -1.43, -12.47, 1.77, 1.54, 12.16, repro,
2009-02-03,3.52, -2.09, -13.91, 1.76, 1.53, 11.99, repro,
2009-02-04,5.54, -0.29, -7.81, 1.78, 1.56, 12.00, repro,
2009-02-05,3.79, -0.67, -5.91, 1.77, 1.55, 12.05, repro,
2009-02-06,0.77, 0.98, -2.30, 1.79, 1.55, 12.18, repro,
2009-02-07,3.27, -0.33, -0.55, 2.21, 1.99, 15.31, repro,
2009-02-08,1.95, 0.15, -4.99, 1.77, 1.54, 12.13, repro,
2009-02-09,3.25, -0.74, -8.82, 1.76, 1.51, 11.85, repro,
2009-02-10,2.65, -0.56, -6.52, 1.78, 1.51, 12.14, repro,
2009-02-11,1.53, -1.35, -8.83, 1.80, 1.53, 12.12, repro,
2009-02-12,0.35, 0.81, -11.19, 1.79, 1.54, 12.25, repro,
2009-02-13,3.13, 1.58, -13.60, 1.77, 1.53, 12.07, repro,
2009-02-14,2.41, 0.92, -14.12, 1.79, 1.54, 12.16, repro,
2009-02-15,4.82, 0.86, -5.23, 1.77, 1.52, 11.98, repro,
2009-02-16,4.60, 0.32, -3.13, 1.75, 1.52, 11.84, repro,
2009-02-17,4.26, -1.58, -5.38, 1.77, 1.56, 12.10, repro,
2009-02-18,1.83, 0.17, -10.97, 1.97, 1.78, 13.62, repro,
2009-02-19,0.80, 1.72, -9.96, 1.79, 1.53, 12.16, repro,
2009-02-20,1.67, 0.97, -5.19, 1.77, 1.55, 12.11, repro,
2009-02-21,1.87, 0.28, -14.48, 1.76, 1.52, 11.92, repro,
2009-02-22,3.69, -1.93, -12.46, 1.81, 1.54, 12.28, repro,
2009-02-23,3.59, 0.38, -10.53, 1.80, 1.55, 12.21, repro,
2009-02-24,2.67, -0.27, -11.51, 2.30, 2.11, 12.67, repro,
2009-02-25,5.45, 3.79, -20.98, 444.25, 245.09, 867.71, repro,
2009-02-26,3.95, -0.78, -0.89, 1.81, 1.54, 12.29, repro,
2009-02-27,4.74, -2.08, -12.65, 1.82, 1.55, 12.26, repro,
2009-02-28,4.62, -2.46, -7.31, 2.32, 1.97, 16.51, repro,
2009-03-01,3.59, -0.70, -12.12, 1.77, 1.54, 12.13, repro,
2009-03-02,3.47, -2.89, -20.24, 1.75, 1.53, 12.08, repro,
2009-03-03,4.51, -3.13, -13.46, 1.85, 1.56, 12.58, repro,
2009-03-04,4.22, -2.99, -12.68, 1.76, 1.54, 12.09, repro,
2009-03-05,4.71, -1.36, -16.81, 1.80, 1.56, 12.32, repro,
2009-03-06,4.49, -3.42, -7.84, 1.81, 1.56, 12.17, repro,
2009-03-07,2.78, -3.84, -15.63, 1.75, 1.54, 12.01, repro,
2009-03-08,3.72, -2.89, -12.13, 1.76, 1.54, 12.05, repro,
2009-03-09,3.66, -3.22, -15.71, 1.76, 1.55, 12.02, repro,
2009-03-10,3.44, -3.43, -18.88, 1.85, 1.56, 12.58, repro,
2009-03-11,5.15, -2.98, -12.79, 1.76, 1.54, 11.97, repro,
2009-03-12,1.37, -2.48, -17.55, 1.77, 1.53, 11.96, repro,
2009-03-13,0.14, -1.31, -21.99, 1.77, 1.54, 12.16, repro,
2009-03-14,2.50, -2.56, -13.37, 1.75, 1.53, 11.96, repro,
2009-03-15,4.31, -1.91, -17.13, 1.78, 1.57, 12.27, repro,
2009-03-16,3.57, -3.75, -14.72, 1.77, 1.53, 12.07, repro,
2009-03-17,3.50, -1.87, -13.49, 1.73, 1.52, 11.86, repro,
2009-03-18,2.11, -2.79, -18.90, 1.73, 1.51, 11.91, repro,
2009-03-19,3.57, -2.53, -17.12, 1.73, 1.53, 11.95, repro,
2009-03-20,3.70, -2.08, -23.59, 1.74, 1.54, 12.08, repro,
2009-03-21,3.86, -3.94, -16.72, 1.75, 1.53, 12.08, repro,
2009-03-22,3.69, -2.94, -15.25, 1.77, 1.54, 12.05, repro,
2009-03-23,0.73, -2.23, -15.29, 1.74, 1.53, 12.00, repro,
2009-03-24,3.80, -2.91, -5.43, 1.76, 1.53, 12.13, repro,
2009-03-25,1.75, 0.01, -16.88, 1.75, 1.54, 12.12, repro,
2009-03-26,1.75, -0.35, -11.75, 1.75, 1.53, 12.10, repro,
2009-03-27,2.87, -0.31, -16.06, 1.78, 1.55, 12.26, repro,
2009-03-28,0.02, 0.67, -22.95, 1.77, 1.57, 12.17, repro,
2009-03-29,1.24, 1.75, -15.77, 1.78, 1.57, 12.15, repro,
2009-03-30,-1.56, 1.79, -28.51, 1.76, 1.58, 12.21, repro,
2009-03-31,-0.86, 0.62, -20.01, 1.80, 1.59, 12.19, repro,
2009-04-01,0.11, -0.47, -27.88, 1.76, 1.56, 12.05, repro,
2009-04-02,-1.75, -0.63, -29.65, 1.79, 1.61, 12.27, repro,
2009-04-03,0.66, -1.48, -30.58, 1.80, 1.61, 12.28, repro,
2009-04-04,-0.31, -0.89, -28.96, 1.75, 1.56, 12.04, repro,
2009-04-05,0.41, -0.39, -27.78, 1.78, 1.59, 12.23, repro,
2009-04-06,-0.02, -0.45, -24.63, 1.76, 1.59, 12.10, repro,
2009-04-07,1.22, -0.47, -20.78, 1.75, 1.56, 12.00, repro,
2009-04-08,0.09, 1.23, -17.76, 1.75, 1.58, 12.09, repro,
2009-04-09,-0.08, 1.27, -13.31, 1.76, 1.59, 12.20, repro,
2009-04-10,0.14, 2.20, -22.73, 2.08, 1.83, 14.38, repro,
2009-04-11,1.23, 1.01, -27.69, 2.59, 2.25, 18.50, repro,
2009-04-12,1.02, -0.39, -23.97, 1.76, 1.58, 12.06, repro,
2009-04-13,0.97, -0.18, -22.20, 1.76, 1.58, 12.06, repro,
2009-04-14,1.27, -0.44, -23.88, 1.75, 1.60, 12.14, repro,
2009-04-15,0.17, 1.36, -29.82, 1.77, 1.58, 12.18, repro,
2009-04-16,-1.34, -0.82, -28.95, 1.77, 1.58, 12.18, repro,
2009-04-17,-0.04, -1.33, -29.56, 1.79, 1.59, 12.27, repro,
2009-04-18,-0.05, -1.41, -18.52, 1.76, 1.56, 12.08, repro,
2009-04-19,-1.31, 0.14, -20.36, 1.74, 1.56, 11.97, repro,
2009-04-20,-0.16, -0.38, -8.60, 1.78, 1.59, 12.26, repro,
2009-04-21,-1.26, -0.25, -22.78, 2.38, 2.16, 16.92, repro,
2009-04-22,-1.19, 0.67, -18.51, 1.77, 1.58, 12.21, repro,
2009-04-23,-0.29, 0.69, -12.27, 1.77, 1.57, 12.19, repro,
2009-04-24,-0.69, -0.08, -10.08, 1.75, 1.57, 11.93, repro,
2009-04-25,0.64, -0.21, -13.17, 1.77, 1.57, 12.01, repro,
2009-04-26,-0.49, 0.18, -21.29, 1.76, 1.57, 11.96, repro,
2009-04-27,-0.58, 2.32, -22.66, 1.77, 1.58, 12.11, repro,
2009-04-28,0.77, 0.64, -17.63, 1.78, 1.59, 12.13, repro,
2009-04-29,1.42, 0.85, -23.85, 1.82, 1.59, 12.27, repro,
2009-04-30,0.23, 0.16, -12.50, 1.84, 1.62, 12.42, repro,
2009-05-01,-0.34, -0.07, -18.97, 1.76, 1.56, 12.03, repro,
2009-05-02,-0.34, 1.29, -17.48, 1.77, 1.57, 12.18, repro,
2009-05-03,2.54, 0.49, -15.85, 1.77, 1.59, 12.26, repro,
2009-05-04,0.74, -0.45, -18.07, 1.77, 1.59, 12.12, repro,
2009-05-05,0.77, 1.26, -15.85, 1.76, 1.57, 11.97, repro,
2009-05-06,0.22, 0.44, -10.97, 1.75, 1.57, 11.96, repro,
2009-05-07,-0.63, 0.61, -29.63, 1.76, 1.58, 12.04, repro,
2009-05-08,1.02, 1.99, -29.20, 1.75, 1.58, 12.07, repro,
2009-05-09,2.31, 0.49, -17.22, 1.78, 1.58, 12.13, repro,
2009-05-10,0.56, 1.19, -19.48, 1.75, 1.58, 11.94, repro,
2009-05-11,1.03, 2.22, -15.51, 1.75, 1.57, 11.94, repro,
2009-05-12,1.28, 0.51, -15.88, 1.78, 1.61, 12.18, repro,
2009-05-13,1.72, 0.95, -13.47, 1.74, 1.58, 11.95, repro,
2009-05-14,1.80, 0.30, -9.34, 1.79, 1.60, 12.04, repro,
2009-05-15,1.33, 0.08, -9.30, 1.78, 1.59, 12.19, repro,
2009-05-16,-0.77, 0.08, -10.74, 1.77, 1.58, 12.11, repro,
2009-05-17,-0.01, 2.57, -14.63, 1.74, 1.58, 11.85, repro,
2009-05-18,-1.53, 0.30, -16.12, 1.74, 1.58, 11.96, repro,
2009-05-19,0.14, 0.24, -19.77, 1.80, 1.60, 12.23, repro,
2009-05-20,2.10, -0.35, -10.52, 1.77, 1.58, 12.05, repro,
2009-05-21,1.09, 1.09, -15.33, 1.80, 1.58, 12.38, repro,
2009-05-22,1.25, 2.52, -20.47, 1.78, 1.59, 12.12, repro,
2009-05-23,2.04, 0.78, -3.88, 1.76, 1.58, 12.07, repro,
2009-05-24,0.08, 1.43, -10.50, 1.74, 1.58, 11.96, repro,
2009-05-25,1.39, 1.25, -12.01, 1.74, 1.56, 11.90, repro,
2009-05-26,-0.73, -0.28, -14.37, 1.78, 1.57, 12.14, repro,
2009-05-27,-0.34, 0.51, -10.75, 1.75, 1.56, 11.96, repro,
2009-05-28,0.41, -0.32, -17.23, 1.78, 1.58, 12.17, repro,
2009-05-29,0.07, 0.20, -13.24, 1.76, 1.57, 11.96, repro,
2009-05-30,-0.48, 1.81, -15.68, 1.72, 1.57, 11.87, repro,
2009-05-31,0.84, 0.49, -19.39, 1.75, 1.57, 11.91, repro,
2009-06-01,0.71, 1.79, -7.59, 2.49, 2.23, 17.61, repro,
2009-06-02,0.31, 1.85, -22.50, 1.76, 1.57, 11.91, repro,
2009-06-03,1.23, 1.09, -21.33, 1.77, 1.60, 12.16, repro,
2009-06-04,1.19, 0.97, -15.85, 1.74, 1.57, 11.83, repro,
2009-06-05,2.12, -0.34, -14.69, 1.76, 1.57, 11.95, repro,
2009-06-06,0.19, 0.92, -17.88, 1.80, 1.59, 12.35, repro,
2009-06-07,-0.07, 1.14, -21.59, 1.80, 1.56, 12.24, repro,
2009-06-08,1.11, 0.14, -17.02, 1.77, 1.59, 12.06, repro,
2009-06-09,0.85, -2.04, -15.39, 1.77, 1.58, 12.08, repro,
2009-06-10,1.23, -1.16, -20.40, 1.76, 1.59, 12.01, repro,
2009-06-11,-1.75, -0.13, -20.96, 1.78, 1.58, 12.18, repro,
2009-06-12,0.23, 0.24, -25.86, 1.78, 1.57, 12.16, repro,
2009-06-13,0.94, 0.42, -17.33, 1.77, 1.57, 12.05, repro,
2009-06-14,3.16, -0.84, -19.57, 1.81, 1.59, 12.25, repro,
2009-06-15,2.51, 0.19, -12.98, 1.76, 1.59, 12.10, repro,
2009-06-16,1.71, -0.00, -12.81, 1.76, 1.59, 12.17, repro,
2009-06-17,1.08, 1.36, -14.38, 1.80, 1.61, 12.33, repro,
2009-06-18,2.31, 0.67, -15.91, 1.78, 1.60, 12.25, repro,
2009-06-19,2.53, 1.00, -18.29, 1.78, 1.57, 12.09, repro,
2009-06-20,2.22, 0.49, -21.56, 1.76, 1.58, 12.06, repro,
2009-06-21,2.11, 0.98, -16.08, 1.75, 1.58, 11.99, repro,
2009-06-22,-0.79, 1.25, -17.19, 1.75, 1.57, 11.90, repro,
2009-06-23,2.01, 0.88, -17.86, 1.76, 1.57, 12.05, repro,
2009-06-24,0.13, 1.22, -23.30, 1.78, 1.59, 12.20, repro,
2009-06-25,0.14, 2.60, -16.57, 1.77, 1.57, 12.05, repro,
2009-06-26,0.54, 0.70, -13.86, 1.75, 1.61, 12.04, repro,
2009-06-27,0.27, -0.26, -22.73, 1.80, 1.67, 12.40, repro,
2009-06-28,-0.85, -0.67, -20.65, 1.87, 1.71, 12.79, repro,
2009-06-29,-0.31, 1.54, -23.21, 1.81, 1.65, 12.37, repro,
2009-06-30,1.13, 0.75, -21.52, 1.78, 1.64, 12.28, repro,
2009-07-01,0.45, 1.22, -25.76, 1.78, 1.62, 12.13, repro,
2009-07-02,1.36, -0.67, -22.67, 1.77, 1.62, 12.08, repro,
2009-07-03,1.22, 0.39, -5.16, 1.77, 1.57, 12.01, repro,
2009-07-04,-0.90, 0.10, -17.01, 1.81, 1.58, 12.33, repro,
2009-07-05,2.81, -0.08, -11.75, 1.80, 1.59, 12.29, repro,
2009-07-06,0.29, -0.19, -23.14, 1.80, 1.60, 12.23, repro,
2009-07-07,-2.10, 0.95, -16.85, 1.77, 1.58, 12.01, repro,
2009-07-08,0.35, 0.13, -13.57, 1.78, 1.60, 12.19, repro,
2009-07-09,-0.21, -1.30, -10.27, 1.78, 1.56, 11.95, repro,
2009-07-10,0.08, -1.54, -18.84, 1.81, 1.60, 12.31, repro,
2009-07-11,-0.60, 0.15, -18.70, 1.82, 1.60, 12.40, repro,
2009-07-12,-1.57, 0.45, -13.68, 1.78, 1.57, 12.04, repro,
2009-07-13,-1.78, -1.19, -17.65, 1.81, 1.61, 12.18, repro,
2009-07-14,-0.99, -0.19, -15.73, 1.81, 1.59, 12.19, repro,
2009-07-15,-1.67, -0.96, -21.48, 1.78, 1.59, 12.17, repro,
2009-07-16,-1.58, -0.71, -13.64, 1.81, 1.64, 12.26, repro,
2009-07-17,-2.91, 0.66, -20.95, 1.78, 1.59, 12.08, repro,
2009-07-18,-1.38, -0.42, 5.21, 1.79, 1.57, 12.10, repro,
2009-07-19,-1.95, 0.12, -16.50, 1.78, 1.57, 12.10, repro,
2009-07-20,-2.46, 0.62, -20.50, 1.78, 1.56, 11.96, repro,
2009-07-21,-2.20, -0.70, -19.99, 1.81, 1.58, 12.18, repro,
2009-07-22,-2.16, 0.30, -7.71, 1.82, 1.64, 12.51, repro,
2009-07-23,-1.49, 0.06, -1.77, 1.76, 1.57, 11.94, repro,
2009-07-24,-1.19, 0.51, -4.15, 1.84, 1.66, 12.48, repro,
2009-07-25,-3.37, -0.27, -11.05, 1.81, 1.61, 12.33, repro,
2009-07-26,-1.14, -1.53, -10.06, 1.80, 1.64, 12.28, repro,
2009-07-27,-1.86, -0.58, -18.52, 1.78, 1.58, 12.18, repro,
2009-07-28,-1.46, -1.20, -15.59, 1.83, 1.61, 12.21, repro,
2009-07-29,-1.40, -0.52, 3.22, 1.78, 1.60, 12.00, repro,
2009-07-30,-2.15, 0.05, -10.05, 1.86, 1.66, 12.71, repro,
2009-07-31,-1.78, -0.11, -4.75, 1.75, 1.57, 11.86, repro,
2009-08-01,-2.63, -0.81, -16.28, 1.76, 1.57, 11.98, repro,
2009-08-02,-1.57, -1.98, -17.28, 1.77, 1.58, 12.05, repro,
2009-08-03,0.26, 0.73, -5.52, 1.82, 1.65, 12.55, repro,
2009-08-04,-0.77, -0.86, -6.20, 1.78, 1.61, 12.18, repro,
2009-08-05,-3.02, -0.25, -0.89, 1.87, 1.63, 12.48, repro,
2009-08-06,-0.57, -1.42, -4.24, 1.76, 1.56, 11.85, repro,
2009-08-07,-1.06, -0.38, -0.55, 2.62, 2.19, 17.72, repro,
2009-08-08,-2.14, -0.46, -7.50, 1.82, 1.61, 12.36, repro,
2009-08-09,-0.16, -0.41, -9.74, 1.78, 1.57, 12.09, repro,
2009-08-10,-1.68, -1.75, -6.90, 1.78, 1.57, 12.07, repro,
2009-08-11,-0.84, -1.06, -4.84, 1.81, 1.58, 12.28, repro,
2009-08-12,-1.19, -1.61, -7.34, 1.76, 1.56, 11.97, repro,
2009-08-13,-2.06, -0.49, -13.63, 1.77, 1.57, 12.07, repro,
2009-08-14,-0.16, -1.93, -3.42, 1.77, 1.57, 12.02, repro,
2009-08-15,0.75, -1.81, 1.32, 1.76, 1.57, 11.95, repro,
2009-08-16,0.51, -3.54, -0.87, 1.77, 1.56, 12.00, repro,
2009-08-17,-0.55, -3.08, -2.44, 1.76, 1.57, 11.96, repro,
2009-08-18,0.14, -3.19, 2.47, 1.80, 1.60, 12.29, repro,
2009-08-19,0.41, -3.59, -6.46, 1.77, 1.59, 12.09, repro,
2009-08-20,1.41, -2.16, -9.15, 1.76, 1.57, 11.86, repro,
2009-08-21,1.00, -1.38, 2.00, 1.80, 1.63, 12.28, repro,
2009-08-22,1.08, -1.02, 1.82, 1.82, 1.66, 12.45, repro,
2009-08-23,0.29, -0.77, -1.46, 1.78, 1.63, 12.21, repro,
2009-08-24,-2.09, -1.08, -13.53, 1.80, 1.63, 12.38, repro,
2009-08-25,-0.54, -1.50, -13.27, 1.77, 1.61, 12.04, repro,
2009-08-26,-1.68, -1.01, -6.85, 1.78, 1.61, 12.18, repro,
2009-08-27,-0.46, -1.78, -0.64, 1.80, 1.62, 12.29, repro,
2009-08-28,-0.38, -1.13, -7.23, 2.32, 2.04, 16.30, repro,
2009-08-29,0.10, -1.47, 18.92, 3.12, 2.85, 20.62, repro,